Fort Payne, AL

1:54 PM CST on February 08, 2016 (GMT -0600)
Fort Payne

Weather History for K4A9 - April, 2014

Change the Weather History Date:

Wednesday, April 23, 2014

  Actual Average (KRMG) Record (KRMG)
Temperature  
Mean Temperature 58 °F 62 °F  
Max Temperature 73 °F 75 °F 87 °F (2004)
Min Temperature 42 °F 49 °F 39 °F (1998)
Degree Days  
Heating Degree Days 8 5  
Month to date heating degree days 160  
Since 1 July heating degree days 3187  
Cooling Degree Days 0 1  
Month to date cooling degree days 19  
Year to date cooling degree days 23  
Growing Degree Days 8 (Base 50)    
Moisture  
Dew Point 37 °F    
Average Humidity 56    
Maximum Humidity 94    
Minimum Humidity 15    
Precipitation  
Precipitation 0.00 in 0.16 in 0.12 in (1998)
Month to date precipitation 2.94  
Year to date precipitation 17.58  
Sea Level Pressure  
Sea Level Pressure 29.96 in    
Wind  
Wind Speed 2 mph (NNE)    
Max Wind Speed 12 mph    
Max Gust Speed 16 mph    
Visibility 7 miles    
Events Fog    
T = Trace of Precipitation, MM = Missing Value Source: NWS Daily Summary

Daily Weather History Graph

Daily Weather History Graph

Search for Another Location

Airport or City:

Trip Planner

Search our weather history database for the weather conditions in past years. The results will help you decide how hot, cold, wet, or windy it might be!

Date:

Astronomy

Apr. 23, 2014 Rise Set
Actual Time 6:01 AM CDT 7:21 PM CDT
Civil Twilight 5:35 AM CDT 7:47 PM CDT
Nautical Twilight 5:04 AM CDT 8:19 PM CDT
Astronomical Twilight 4:31 AM CDT 8:51 PM CDT
Moon 2:17 AM CDT (4/23) 1:43 PM CDT (4/23)
Length of Visible Light 14h 12m
Length of Day
13h 19m
Waning Crescent, 34% of the Moon is Illuminated
Apr 23
Waning Crescent
Apr 29
New
May 6
First Quarter
May 14
Full
May 21
Last Quarter

Hourly Weather History & Observations

Time (CDT) Temp. Windchill Dew Point Humidity Pressure Visibility Wind Dir Wind Speed Gust Speed Precip Events Conditions
12:15 AM 55.4 °F - 53.6 °F 94% 29.90 in 0.5 mi Calm Calm - N/A Fog Fog
12:35 AM 53.6 °F - 51.8 °F 94% 29.91 in 1.0 mi Calm Calm - N/A   Mist
12:55 AM 53.6 °F - 51.8 °F 94% 29.91 in 0.2 mi Calm Calm - N/A Fog Fog
1:15 AM 53.6 °F - 51.8 °F 94% 29.91 in 0.2 mi Calm Calm - N/A Fog Fog
1:35 AM 51.8 °F - 50.0 °F 94% 29.90 in 0.2 mi Calm Calm - N/A Fog Fog
1:55 AM 51.8 °F - 50.0 °F 94% 29.90 in 0.5 mi Calm Calm - N/A Fog Fog
2:15 AM 51.8 °F - 50.0 °F 94% 29.91 in 0.5 mi Calm Calm - N/A Fog Fog
2:35 AM 50.0 °F - 48.2 °F 94% 29.91 in 0.5 mi Calm Calm - N/A Fog Fog
2:55 AM 50.0 °F - 48.2 °F 94% 29.91 in 4.0 mi Calm Calm - N/A   Clear
3:15 AM 50.0 °F - 46.4 °F 87% 29.91 in 0.5 mi Calm Calm - N/A Fog Fog
3:35 AM 50.0 °F - 46.4 °F 87% 29.91 in 0.5 mi Calm Calm - N/A Fog Fog
3:55 AM 48.2 °F - 44.6 °F 87% 29.92 in 1.2 mi Calm Calm - N/A   Mist
4:15 AM 46.4 °F - 44.6 °F 93% 29.92 in 0.5 mi Calm Calm - N/A Fog Fog
4:55 AM 46.4 °F - 44.6 °F 93% 29.93 in 0.5 mi Calm Calm - N/A Fog Fog
5:15 AM 46.4 °F - 44.6 °F 93% 29.93 in 0.5 mi Calm Calm - N/A Fog Fog
5:35 AM 44.6 °F - 42.8 °F 93% 29.94 in 0.5 mi Calm Calm - N/A Fog Fog
5:55 AM 44.6 °F - 42.8 °F 93% 29.96 in 0.5 mi Calm Calm - N/A Fog Fog
6:15 AM 42.8 °F - 41.0 °F 93% 29.96 in 0.8 mi Calm Calm - N/A   Mostly Cloudy
6:35 AM 42.8 °F - 41.0 °F 93% 29.97 in 4.0 mi Calm Calm - N/A   Clear
6:55 AM 42.8 °F - 41.0 °F 93% 29.98 in 0.5 mi Calm Calm - N/A Fog Fog
7:15 AM 44.6 °F - 42.8 °F 93% 29.99 in 7.0 mi Calm Calm - N/A   Clear
7:35 AM 48.2 °F - 44.6 °F 87% 30.00 in 10.0 mi Calm Calm - N/A   Clear
7:55 AM 50.0 °F - 44.6 °F 82% 30.00 in 10.0 mi NE 3.5 mph - N/A   Clear
8:15 AM 51.8 °F - 44.6 °F 76% 30.01 in 10.0 mi NE 4.6 mph - N/A   Clear
8:35 AM 53.6 °F - 41.0 °F 62% 30.01 in 10.0 mi ENE 5.8 mph - N/A   Clear
8:55 AM 59.0 °F - 39.2 °F 48% 30.01 in 10.0 mi NE 4.6 mph - N/A   Clear
9:15 AM 59.0 °F - 37.4 °F 45% 30.01 in 10.0 mi East 3.5 mph - N/A   Clear
9:35 AM 60.8 °F - 39.2 °F 45% 30.02 in 10.0 mi ENE 4.6 mph - N/A   Clear
9:55 AM 60.8 °F - 33.8 °F 36% 30.02 in 10.0 mi North 5.8 mph 16.1 mph N/A   Clear
10:15 AM 62.6 °F - 33.8 °F 34% 30.02 in 10.0 mi NE 8.1 mph - N/A   Clear
10:35 AM 62.6 °F - 33.8 °F 34% 30.02 in 7.0 mi NE 8.1 mph - N/A   Clear
10:55 AM 64.4 °F - 33.8 °F 32% 30.01 in 10.0 mi NNE 6.9 mph - N/A   Clear
11:15 AM 64.4 °F - 32.0 °F 30% 30.01 in 10.0 mi North 9.2 mph - N/A   Clear
11:35 AM 64.4 °F - 32.0 °F 30% 30.00 in 10.0 mi NE 9.2 mph - N/A   Clear
11:55 AM 68.0 °F - 30.2 °F 24% 30.00 in 10.0 mi North 8.1 mph - N/A   Clear
12:15 PM 68.0 °F - 32.0 °F 26% 29.99 in 10.0 mi North 10.4 mph - N/A   Clear
12:35 PM 68.0 °F - 28.4 °F 23% 29.98 in 10.0 mi NNE 8.1 mph 16.1 mph N/A   Clear
1:15 PM 69.8 °F - 23.0 °F 17% 29.97 in 10.0 mi NNE 11.5 mph 16.1 mph N/A   Clear
1:35 PM 69.8 °F - 23.0 °F 17% 29.97 in 10.0 mi NNE 5.8 mph - N/A   Clear
1:55 PM 69.8 °F - 28.4 °F 21% 29.96 in 10.0 mi NE 3.5 mph - N/A   Clear
2:15 PM 71.6 °F - 23.0 °F 16% 29.96 in 10.0 mi North 6.9 mph - N/A   Clear
2:55 PM 71.6 °F - 24.8 °F 17% 29.94 in 10.0 mi Calm Calm - N/A   Clear
3:15 PM 73.4 °F - 23.0 °F 15% 29.94 in 10.0 mi NNE 6.9 mph - N/A   Clear
3:35 PM 73.4 °F - 24.8 °F 16% 29.93 in 10.0 mi NNW 8.1 mph - N/A   Clear
3:55 PM 73.4 °F - 23.0 °F 15% 29.93 in 10.0 mi NW 5.8 mph - N/A   Clear
4:15 PM 73.4 °F - 24.8 °F 16% 29.93 in 10.0 mi NNE 5.8 mph - N/A   Clear
4:35 PM 73.4 °F - 23.0 °F 15% 29.92 in 10.0 mi Calm Calm - N/A   Clear
4:55 PM 73.4 °F - 23.0 °F 15% 29.92 in 10.0 mi Calm Calm - N/A   Clear
5:15 PM 73.4 °F - 28.4 °F 19% 29.92 in 10.0 mi NNW 3.5 mph - N/A   Clear
5:35 PM 73.4 °F - 26.6 °F 18% 29.92 in 10.0 mi West 6.9 mph - N/A   Clear
5:55 PM 73.4 °F - 24.8 °F 16% 29.92 in 10.0 mi WNW 5.8 mph - N/A   Clear
6:15 PM 71.6 °F - 26.6 °F 19% 29.92 in 10.0 mi NNW 4.6 mph - N/A   Clear
6:35 PM 71.6 °F - 26.6 °F 19% 29.93 in 10.0 mi NW 3.5 mph - N/A   Clear
6:55 PM 69.8 °F - 28.4 °F 21% 29.93 in 10.0 mi Calm Calm - N/A   Clear
7:15 PM 64.4 °F - 33.8 °F 32% 29.93 in 10.0 mi Calm Calm - N/A   Clear
7:35 PM 60.8 °F - 35.6 °F 39% 29.94 in 10.0 mi Calm Calm - N/A   Clear
7:55 PM 59.0 °F - 37.4 °F 45% 29.94 in 10.0 mi Calm Calm - N/A   Clear
8:15 PM 57.2 °F - 37.4 °F 48% 29.95 in 10.0 mi East 3.5 mph - N/A   Clear
8:35 PM 55.4 °F - 41.0 °F 58% 29.96 in 10.0 mi Calm Calm - N/A   Clear
8:55 PM 55.4 °F - 41.0 °F 58% 29.97 in 10.0 mi Calm Calm - N/A   Clear
9:15 PM 53.6 °F - 39.2 °F 58% 29.97 in 10.0 mi Calm Calm - N/A   Clear
9:55 PM 51.8 °F - 39.2 °F 62% 29.98 in 10.0 mi Calm Calm - N/A   Clear
10:15 PM 50.0 °F - 41.0 °F 71% 29.98 in 10.0 mi Calm Calm - N/A   Clear
10:35 PM 50.0 °F - 41.0 °F 71% 29.98 in 10.0 mi Calm Calm - N/A   Clear
10:55 PM 48.2 °F - 41.0 °F 76% 29.98 in 10.0 mi Calm Calm - N/A   Clear
11:15 PM 46.4 °F - 39.2 °F 76% 29.97 in 10.0 mi Calm Calm - N/A   Clear
11:35 PM 46.4 °F 45.2 °F 39.2 °F 76% 29.97 in 10.0 mi NNE 3.5 mph - N/A   Clear
11:55 PM 46.4 °F - 39.2 °F 76% 29.97 in 10.0 mi Calm Calm - N/A   Clear